Alma, MI

7:19 AM EDT on July 28, 2017 (GMT -0400)
Gratiot Community

Weather History for KAMN - February, 2013

Change the Weather History Date:

Tuesday, February 12, 2013

  Actual Average Record
Temperature  
Mean Temperature 28 °F -  
Max Temperature 30 °F 29 °F 49 °F (1976)
Min Temperature 26 °F 11 °F -10 °F (1958)
Degree Days  
Heating Degree Days 37    
Moisture  
Dew Point 23 °F    
Average Humidity 78    
Maximum Humidity 81    
Minimum Humidity 74    
Precipitation  
Precipitation 0.00 in - - ()
Sea Level Pressure  
Sea Level Pressure 29.94 in    
Wind  
Wind Speed 12 mph (WSW)    
Max Wind Speed 18 mph    
Max Gust Speed 25 mph    
Visibility 10 miles    
Events      
Averages and records for this station are not official NWS values.
T = Trace of Precipitation, MM = Missing Value Source: NWS Daily Summary

Daily Weather History Graph

Daily Weather History Graph

Search for Another Location

Airport or City:

Trip Planner

Search our weather history database for the weather conditions in past years. The results will help you decide how hot, cold, wet, or windy it might be!

Date:

Astronomy

Feb. 12, 2013 Rise Set
Actual Time 7:40 AM EST 6:05 PM EST
Civil Twilight 7:11 AM EST 6:35 PM EST
Nautical Twilight 6:37 AM EST 7:08 PM EST
Astronomical Twilight 6:04 AM EST 7:42 PM EST
Moon 8:31 AM EST (2/12) 9:12 PM EST (2/12)
Length of Visible Light 11h 24m
Length of Day
10h 25m
Waxing Crescent, 7% of the Moon is Illuminated
Feb 12
Waxing Crescent
Feb 17
First Quarter
Feb 25
Full
Mar 4
Last Quarter
Mar 11
New

Hourly Weather History & Observations

Time (EST) Temp. Windchill Dew Point Humidity Pressure Visibility Wind Dir Wind Speed Gust Speed Precip Events Conditions
12:14 AM 30.9 °F 21.7 °F 25.7 °F 81% 29.83 in 10.0 mi West 11.5 mph 25.3 mph N/A   Overcast
12:34 AM 30.9 °F 19.1 °F 25.5 °F 80% 29.85 in 10.0 mi West 18.4 mph 25.3 mph N/A   Overcast
12:54 AM 30.9 °F 19.4 °F 25.3 °F 80% 29.85 in 10.0 mi West 17.3 mph 23.0 mph N/A   Overcast
1:14 AM 30.9 °F 19.8 °F 25.0 °F 79% 29.86 in 10.0 mi West 16.1 mph 25.3 mph N/A   Overcast
1:34 AM 30.7 °F 19.2 °F 24.6 °F 78% 29.86 in 10.0 mi West 17.3 mph 25.3 mph N/A   Overcast
1:55 AM 30.6 °F 20.7 °F 24.4 °F 78% 29.87 in 10.0 mi West 12.7 mph 20.7 mph N/A   Overcast
2:10 AM 30.6 °F 20.2 °F 23.9 °F 76% 29.88 in 10.0 mi West 13.8 mph 20.7 mph N/A   Overcast
2:32 AM 30.4 °F 20.5 °F 23.7 °F 76% 29.89 in 10.0 mi West 12.7 mph 18.4 mph N/A   Overcast
2:52 AM 30.2 °F 20.2 °F 23.9 °F 77% 29.89 in 10.0 mi West 12.7 mph 17.3 mph N/A   Overcast
3:12 AM 30.2 °F 21.3 °F 23.9 °F 77% 29.90 in 10.0 mi WSW 10.4 mph 17.3 mph N/A   Overcast
3:32 AM 30.2 °F 20.8 °F 23.5 °F 76% 29.90 in 10.0 mi WSW 11.5 mph - N/A   Overcast
3:54 AM 30.0 °F 20.0 °F 23.4 °F 76% 29.91 in 10.0 mi WSW 12.7 mph - N/A   Overcast
4:15 AM 30.0 °F 21.1 °F 23.0 °F 75% 29.91 in 10.0 mi WSW 10.4 mph - N/A   Overcast
4:35 AM 30.0 °F 21.1 °F 22.8 °F 75% 29.92 in 10.0 mi WSW 10.4 mph - N/A   Overcast
4:50 AM 30.0 °F 21.7 °F 22.8 °F 75% 29.92 in 10.0 mi WSW 9.2 mph - N/A   Overcast
5:10 AM 30.0 °F 20.5 °F 23.2 °F 76% 29.93 in 10.0 mi WSW 11.5 mph - N/A   Overcast
5:30 AM 29.8 °F 19.8 °F 23.0 °F 76% 29.94 in 10.0 mi WSW 12.7 mph 18.4 mph N/A   Overcast
5:50 AM 30.0 °F 21.1 °F 23.4 °F 76% 29.95 in 10.0 mi West 10.4 mph 16.1 mph N/A   Overcast
6:10 AM 30.0 °F 20.5 °F 23.0 °F 75% 29.95 in 10.0 mi West 11.5 mph 18.4 mph N/A   Overcast
6:30 AM 29.8 °F 20.3 °F 23.4 °F 77% 29.96 in 10.0 mi West 11.5 mph 17.3 mph N/A   Overcast
6:51 AM 29.8 °F 20.9 °F 23.5 °F 77% 29.96 in 10.0 mi West 10.4 mph - N/A   Overcast
7:11 AM 29.8 °F 21.5 °F 23.7 °F 78% 29.97 in 10.0 mi West 9.2 mph - N/A   Overcast
7:31 AM 29.8 °F 23.0 °F 23.9 °F 79% 29.97 in 10.0 mi West 6.9 mph - N/A   Overcast
7:51 AM 29.8 °F 20.9 °F 23.2 °F 76% 29.98 in 10.0 mi West 10.4 mph 18.4 mph N/A   Overcast
8:11 AM 29.7 °F 18.2 °F 22.8 °F 76% 29.98 in 10.0 mi WSW 16.1 mph 19.6 mph N/A   Overcast
8:31 AM 29.7 °F 20.1 °F 22.3 °F 74% 29.99 in 10.0 mi West 11.5 mph 20.7 mph N/A   Overcast
8:51 AM 29.7 °F 20.1 °F 22.8 °F 76% 29.99 in 10.0 mi West 11.5 mph - N/A   Overcast
9:11 AM 29.7 °F 20.7 °F 23.0 °F 76% 29.99 in 10.0 mi West 10.4 mph - N/A   Overcast
9:32 AM 29.7 °F 22.0 °F 23.5 °F 78% 30.00 in 10.0 mi West 8.1 mph - N/A   Overcast
9:52 AM 29.8 °F 22.2 °F 23.7 °F 78% 29.99 in 10.0 mi West 8.1 mph - N/A   Overcast
10:12 AM 29.7 °F 22.0 °F 23.9 °F 79% 29.99 in 10.0 mi West 8.1 mph - N/A   Overcast
10:32 AM 29.7 °F 22.0 °F 23.7 °F 79% 29.99 in 10.0 mi West 8.1 mph - N/A   Overcast
10:52 AM 29.8 °F 23.0 °F 23.9 °F 79% 30.01 in 10.0 mi WSW 6.9 mph - N/A   Overcast
11:12 AM 30.0 °F 20.0 °F 23.0 °F 75% 30.01 in 10.0 mi West 12.7 mph 19.6 mph N/A   Overcast
11:32 AM 29.8 °F 22.2 °F 23.2 °F 76% 30.00 in 10.0 mi West 8.1 mph 17.3 mph N/A   Overcast
11:52 AM 29.7 °F 22.0 °F 23.4 °F 77% 29.99 in 10.0 mi WSW 8.1 mph 16.1 mph N/A   Overcast
12:13 PM 30.0 °F 21.7 °F 22.8 °F 75% 29.99 in 10.0 mi WSW 9.2 mph 18.4 mph N/A   Overcast
12:33 PM 30.0 °F 23.2 °F 23.4 °F 76% 29.98 in 10.0 mi West 6.9 mph - N/A   Overcast
12:53 PM 30.0 °F 23.2 °F 23.7 °F 77% 29.97 in 10.0 mi WSW 6.9 mph - N/A   Overcast
1:13 PM 30.2 °F 23.4 °F 24.1 °F 78% 29.98 in 10.0 mi WSW 6.9 mph - N/A   Overcast
1:33 PM 30.2 °F 19.8 °F 23.2 °F 75% 29.97 in 10.0 mi West 13.8 mph 18.4 mph N/A   Overcast
1:53 PM 30.2 °F 21.3 °F 23.5 °F 76% 29.96 in 10.0 mi West 10.4 mph 18.4 mph N/A   Overcast
2:13 PM 30.2 °F 19.8 °F 23.5 °F 76% 29.95 in 10.0 mi WSW 13.8 mph - N/A   Overcast
2:33 PM 30.2 °F 22.6 °F 23.7 °F 77% 29.93 in 10.0 mi West 8.1 mph - N/A   Overcast
2:53 PM 30.2 °F 22.6 °F 23.9 °F 77% 29.92 in 10.0 mi WSW 8.1 mph - N/A   Overcast
3:14 PM 30.0 °F 20.5 °F 23.9 °F 78% 29.92 in 10.0 mi West 11.5 mph - N/A   Overcast
3:34 PM 29.8 °F 20.9 °F 23.9 °F 79% 29.92 in 10.0 mi West 10.4 mph - N/A   Overcast
3:54 PM 29.8 °F 19.8 °F 23.0 °F 76% 29.93 in 10.0 mi WSW 12.7 mph 17.3 mph N/A   Overcast
4:14 PM 29.3 °F 20.2 °F 22.8 °F 77% 29.94 in 10.0 mi SW 10.4 mph 17.3 mph N/A   Overcast
4:34 PM 28.4 °F 19.1 °F 22.6 °F 79% 29.94 in 10.0 mi WSW 10.4 mph 16.1 mph N/A   Overcast
4:54 PM 28.2 °F 17.2 °F 22.1 °F 78% 29.94 in 10.0 mi WSW 13.8 mph 19.6 mph N/A   Overcast
5:14 PM 28.2 °F 22.0 °F 22.8 °F 80% 29.94 in 10.0 mi WSW 5.8 mph - N/A   Overcast
5:34 PM 27.9 °F 18.4 °F 22.5 °F 80% 29.94 in 10.0 mi SW 10.4 mph 19.6 mph N/A   Overcast
5:55 PM 27.5 °F 19.3 °F 22.1 °F 80% 29.95 in 10.0 mi WSW 8.1 mph 17.3 mph N/A   Overcast
6:15 PM 27.5 °F 17.4 °F 21.6 °F 78% 29.94 in 10.0 mi West 11.5 mph 18.4 mph N/A   Overcast
6:35 PM 27.5 °F 18.0 °F 21.9 °F 80% 29.95 in 10.0 mi WSW 10.4 mph - N/A   Overcast
6:55 PM 27.3 °F 18.4 °F 22.1 °F 81% 29.95 in 10.0 mi West 9.2 mph - N/A   Overcast
7:15 PM 27.1 °F 17.5 °F 22.1 °F 81% 29.94 in 10.0 mi WSW 10.4 mph - N/A   Overcast
7:30 PM 27.1 °F 16.4 °F 21.2 °F 78% 29.94 in 10.0 mi West 12.7 mph 17.3 mph N/A   Overcast
7:50 PM 26.6 °F 15.7 °F 20.1 °F 77% 29.94 in 10.0 mi West 12.7 mph 19.6 mph N/A   Overcast
8:10 PM 26.6 °F 16.8 °F 20.1 °F 77% 29.94 in 10.0 mi WSW 10.4 mph - N/A   Overcast
8:30 PM 26.6 °F 19.1 °F 20.5 °F 78% 29.94 in 10.0 mi WSW 6.9 mph 17.3 mph N/A   Overcast
8:51 PM 26.6 °F 17.5 °F 20.3 °F 77% 29.94 in 10.0 mi WSW 9.2 mph 17.3 mph N/A   Overcast
9:11 PM 26.6 °F 17.5 °F 20.3 °F 77% 29.93 in 10.0 mi West 9.2 mph - N/A   Overcast
9:31 PM 26.6 °F 15.7 °F 20.8 °F 79% 29.93 in 10.0 mi West 12.7 mph - N/A   Overcast
9:51 PM 26.6 °F 17.5 °F 21.2 °F 80% 29.92 in 10.0 mi West 9.2 mph - N/A   Overcast
10:11 PM 26.6 °F 19.1 °F 21.2 °F 80% 29.92 in 10.0 mi West 6.9 mph - N/A   Overcast
10:31 PM 26.6 °F 17.5 °F 21.2 °F 80% 29.92 in 10.0 mi West 9.2 mph - N/A   Overcast
10:51 PM 27.0 °F 20.5 °F 21.6 °F 80% 29.91 in 10.0 mi West 5.8 mph - N/A   Overcast
11:11 PM 27.0 °F 19.5 °F 21.7 °F 81% 29.91 in 10.0 mi West 6.9 mph - N/A   Overcast
11:31 PM 26.8 °F 20.2 °F 21.7 °F 81% 29.91 in 10.0 mi West 5.8 mph - N/A   Overcast
11:51 PM 27.0 °F 21.6 °F 21.7 °F 81% 29.90 in 10.0 mi WSW 4.6 mph - N/A   Overcast